Stations météo

réclame
Mon MeteoGroup
Ibiza/Es Codola, Espagne (8373): Température de l'air & dewpoint: 15.01.2018 14:00:00 - 21.01.2018 14:00:00 (CET)Ibiza/Es Codola, Espagne (8373): Vitesse du vent: 15.01.2018 14:00:00 - 21.01.2018 14:00:00 (CET)Ibiza/Es Codola, Espagne (8373): Direction du vent: 15.01.2018 14:00:00 - 21.01.2018 14:00:00 (CET)Ibiza/Es Codola, Espagne (8373): reduced air pressure: 15.01.2018 14:00:00 - 21.01.2018 14:00:00 (CET)Ibiza/Es Codola, Espagne (8373): visibility: 15.01.2018 14:00:00 - 21.01.2018 14:00:00 (CET)
Date & Time tt [°C] td [°C] ff [km/h] ff [knt] dd ppp [hPa] vv [km]
21.01.2018 14:00:00 - - - - - - -
21.01.2018 13:00:00 19,9 8,6 26 14 W 1022,8 30
21.01.2018 12:00:00 19,6 8,6 21 11 WNW 1023,2 10
21.01.2018 11:00:00 19,2 8,6 16 9 W 1023,1 10
21.01.2018 10:00:00 18,2 8,3 15 8 WNW 1022,2 30
21.01.2018 09:00:00 16,7 7,8 11 6 SSW 1021,6 10
21.01.2018 08:00:00 16,1 6,8 8 4 SSW 1020,8 10
21.01.2018 07:00:00 16,2 6,3 9 5 WSW 1020,6 25
21.01.2018 06:00:00 15,2 7,2 15 8 WSW 1020,5 -
21.01.2018 05:00:00 15,2 6,7 21 11 WSW 1020,5 -
21.01.2018 04:00:00 16,1 5,9 15 8 W 1020,6 -
21.01.2018 03:00:00 16,0 5,9 16 9 WSW 1020,9 -
21.01.2018 02:00:00 16,8 4,7 21 11 W 1020,9 -
21.01.2018 01:00:00 16,6 3,6 15 8 W 1021,2 -
21.01.2018 00:00:00 16,7 3,6 15 8 W 1021,5 10
20.01.2018 23:00:00 16,0 5,9 18 10 SW 1021,4 10
20.01.2018 22:00:00 16,0 7,5 21 11 SW 1021,3 20
20.01.2018 21:00:00 15,1 11,3 18 10 SW 1021,3 10
20.01.2018 20:00:00 14,9 10,7 18 10 SW 1021,3 10
20.01.2018 19:00:00 13,7 11,0 16 9 WSW 1021,1 20
20.01.2018 18:00:00 14,2 10,0 18 10 SW 1020,9 10
20.01.2018 17:00:00 15,3 10,5 26 14 SW 1021,1 10
20.01.2018 16:00:00 15,9 8,9 26 14 SW 1021,6 30
20.01.2018 15:00:00 16,1 8,4 28 15 WSW 1022,0 10
20.01.2018 14:00:00 17,0 7,7 26 14 WSW 1022,8 10
20.01.2018 13:00:00 16,4 6,8 22 12 WSW 1023,6 30
20.01.2018 12:00:00 16,5 6,0 13 7 SSW 1024,6 10
20.01.2018 11:00:00 14,4 9,6 9 5 SSW 1024,9 10
20.01.2018 10:00:00 12,2 8,8 0 0 N 1024,7 30
20.01.2018 09:00:00 8,0 6,5 5 3 WNW 1024,4 10
20.01.2018 08:00:00 6,1 4,9 0 0 N 1024,3 10
20.01.2018 07:00:00 6,5 5,4 8 4 NW 1023,4 15
20.01.2018 06:00:00 7,4 6,5 4 2 SSW 1023,2 -
20.01.2018 05:00:00 6,9 5,6 9 5 N 1022,8 -
20.01.2018 04:00:00 7,2 5,6 5 3 NNW 1022,8 -
20.01.2018 03:00:00 7,0 5,5 4 2 NNW 1022,9 -
20.01.2018 02:00:00 7,9 6,4 5 3 NW 1022,5 -
20.01.2018 01:00:00 8,3 6,5 5 3 SW 1022,2 -
20.01.2018 00:00:00 7,8 6,6 0 0 N 1022,1 10
19.01.2018 23:00:00 7,7 5,9 4 2 W 1021,8 10
19.01.2018 22:00:00 7,9 6,4 5 3 NW 1021,5 18
19.01.2018 21:00:00 8,3 7,4 4 2 - 1021,2 10
19.01.2018 20:00:00 10,0 8,3 4 2 - 1020,6 10
19.01.2018 19:00:00 11,3 9,0 5 3 NNW 1020,0 16
19.01.2018 18:00:00 12,3 9,7 5 3 WSW 1019,6 10
19.01.2018 17:00:00 14,4 10,9 9 5 WSW 1019,3 10
19.01.2018 16:00:00 14,9 10,9 13 7 WSW 1018,8 19
19.01.2018 15:00:00 15,1 10,5 11 6 SW 1018,6 10
19.01.2018 14:00:00 15,1 10,1 13 7 SW 1018,8 10
19.01.2018 13:00:00 15,2 9,4 8 4 S 1019,4 20
19.01.2018 12:00:00 14,7 8,6 2 1 WNW 1020,4 10
19.01.2018 11:00:00 13,7 9,7 2 1 - 1020,5 10
19.01.2018 10:00:00 11,1 9,8 2 1 - 1019,9 10
19.01.2018 09:00:00 9,3 8,3 0 0 N 1019,3 10
19.01.2018 08:00:00 8,9 8,1 2 1 - 1018,9 10
19.01.2018 07:00:00 9,3 8,4 11 6 N 1018,3 10
19.01.2018 06:00:00 8,5 7,7 2 1 N 1018,7 -
19.01.2018 05:00:00 8,9 8,1 4 2 N 1018,4 -
19.01.2018 04:00:00 9,0 8,1 4 2 NNE 1018,9 -
19.01.2018 03:00:00 9,2 8,4 4 2 NW 1019,6 -
19.01.2018 02:00:00 8,8 7,9 2 1 - 1019,9 10
19.01.2018 01:00:00 8,3 7,2 2 1 - 1020,6 10
19.01.2018 00:00:00 8,6 7,6 0 0 N 1020,9 10
18.01.2018 23:00:00 9,3 8,1 2 1 - 1021,2 10
18.01.2018 22:00:00 9,6 8,2 4 2 - 1021,3 10
18.01.2018 21:00:00 9,3 7,9 5 3 N 1021,9 10
18.01.2018 20:00:00 9,8 8,2 8 4 NNW 1022,4 10
18.01.2018 19:00:00 12,3 9,5 4 2 NW 1022,2 20
18.01.2018 18:00:00 13,4 9,4 8 4 ESE 1022,2 10
18.01.2018 17:00:00 14,9 9,9 8 4 E 1022,3 10
18.01.2018 16:00:00 15,3 10,3 8 4 E 1022,3 10
18.01.2018 15:00:00 15,4 10,5 11 6 E 1022,7 10
18.01.2018 14:00:00 15,9 10,4 13 7 E 1023,6 10
18.01.2018 13:00:00 15,9 10,4 13 7 ESE 1024,8 10
18.01.2018 12:00:00 16,7 11,0 11 6 ESE 1025,9 10
18.01.2018 11:00:00 16,2 10,7 9 5 SE 1026,4 10
18.01.2018 10:00:00 15,5 11,1 5 3 E 1026,2 10
18.01.2018 09:00:00 13,1 11,3 4 2 - 1025,9 10
18.01.2018 08:00:00 13,3 11,2 13 7 E 1025,6 10
18.01.2018 07:00:00 13,8 10,4 8 4 SE 1025,3 10
18.01.2018 06:00:00 13,2 10,4 9 5 ESE 1025,1 -
18.01.2018 05:00:00 12,9 10,3 8 4 ESE 1025,2 -
18.01.2018 04:00:00 14,2 10,6 15 8 ESE 1025,3 -
18.01.2018 03:00:00 14,3 10,9 16 9 ESE 1025,6 -
18.01.2018 02:00:00 12,6 8,9 13 7 NNE 1025,6 -
18.01.2018 01:00:00 11,2 7,4 11 6 NNE 1025,5 -
18.01.2018 00:00:00 10,9 6,4 9 5 NE 1026,0 10
17.01.2018 23:00:00 10,1 5,8 8 4 N 1026,3 10
17.01.2018 22:00:00 8,7 5,9 5 3 E 1025,7 10
17.01.2018 21:00:00 9,8 6,0 9 5 N 1025,5 10
17.01.2018 20:00:00 11,0 6,1 9 5 NNE 1024,6 10
17.01.2018 19:00:00 13,4 5,8 9 5 NNE 1024,1 10
17.01.2018 18:00:00 15,5 5,4 13 7 NNE 1023,2 10
17.01.2018 17:00:00 17,9 6,2 15 8 N 1022,2 10
17.01.2018 16:00:00 19,1 6,6 15 8 N 1021,4 10
17.01.2018 15:00:00 19,5 7,0 15 8 NW 1021,3 10
17.01.2018 14:00:00 20,3 7,0 13 7 NNW 1021,4 10
17.01.2018 13:00:00 19,9 7,9 11 6 NNW 1021,7 10
17.01.2018 12:00:00 19,5 8,6 4 2 - 1021,9 10
17.01.2018 11:00:00 18,0 8,6 13 7 WNW 1021,4 10
17.01.2018 10:00:00 16,2 8,6 11 6 NNW 1021,1 10
17.01.2018 09:00:00 14,6 8,0 5 3 N 1020,8 10
17.01.2018 08:00:00 9,9 6,5 2 1 - 1020,4 10
17.01.2018 07:00:00 10,6 7,2 5 3 SSW 1020,2 10
17.01.2018 06:00:00 12,7 9,3 4 2 S 1019,6 -
17.01.2018 05:00:00 13,8 9,0 4 2 SW 1020,1 -
17.01.2018 04:00:00 13,5 11,5 15 8 SW 1020,8 -
17.01.2018 03:00:00 14,0 12,6 16 9 SSW 1021,2 -
17.01.2018 02:00:00 14,0 12,7 18 10 SW 1020,9 -
17.01.2018 01:00:00 14,4 12,7 18 10 SW 1021,6 -
17.01.2018 00:00:00 14,4 12,4 22 12 SW 1021,8 10
16.01.2018 23:00:00 13,9 12,2 24 13 WSW 1022,2 10
16.01.2018 22:00:00 14,0 12,0 18 10 SW 1022,4 10
16.01.2018 21:00:00 13,8 11,8 22 12 WSW 1022,6 -
16.01.2018 20:00:00 13,9 11,4 24 13 WSW 1023,0 10
16.01.2018 19:00:00 14,0 11,0 24 13 WSW 1022,9 15
16.01.2018 18:00:00 14,2 10,2 26 14 WSW 1022,6 10
16.01.2018 17:00:00 15,3 9,3 31 17 WSW 1022,6 10
16.01.2018 16:00:00 16,0 8,5 37 20 WSW 1022,9 10
16.01.2018 15:00:00 16,2 8,1 34 18 WSW 1023,2 10
16.01.2018 14:00:00 15,5 7,8 35 19 SW 1023,9 10
16.01.2018 13:00:00 15,9 8,1 35 19 WSW 1025,2 10
16.01.2018 12:00:00 15,8 8,2 34 18 WSW 1025,7 10
16.01.2018 11:00:00 15,1 7,9 34 18 WSW 1026,0 10
16.01.2018 10:00:00 14,3 7,8 31 17 WSW 1025,5 10
16.01.2018 09:00:00 13,2 5,8 34 18 WSW 1025,5 10
16.01.2018 08:00:00 12,5 6,4 34 18 WSW 1025,2 10
16.01.2018 07:00:00 12,3 6,6 29 16 WSW 1025,1 10
16.01.2018 06:00:00 12,6 6,4 35 19 WSW 1024,8 10
16.01.2018 05:00:00 12,6 6,6 29 16 SW 1025,3 10
16.01.2018 04:00:00 12,7 7,4 35 19 WSW 1025,7 -
16.01.2018 03:00:00 12,9 7,1 35 19 SW 1026,0 -
16.01.2018 02:00:00 12,9 8,4 31 17 SW 1026,3 -
16.01.2018 01:00:00 12,6 8,1 26 14 SW 1026,6 -
16.01.2018 00:00:00 12,1 7,6 21 11 SW 1027,4 10
15.01.2018 23:00:00 5,9 4,5 0 0 N 1027,7 10
15.01.2018 22:00:00 6,0 4,4 0 0 N 1027,6 10
15.01.2018 21:00:00 6,5 4,3 5 3 NNW 1027,0 10
15.01.2018 20:00:00 7,4 4,5 4 2 - 1027,0 10
15.01.2018 19:00:00 8,5 5,2 5 3 NW 1026,5 10
15.01.2018 18:00:00 11,2 6,1 2 1 - 1026,0 10
15.01.2018 17:00:00 13,1 6,2 8 4 N 1025,5 10
15.01.2018 16:00:00 13,2 6,0 11 6 NNW 1025,0 10
15.01.2018 15:00:00 13,7 6,1 11 6 NNE 1024,7 10
15.01.2018 14:00:00 14,6 7,2 13 7 E 1024,8 10

tt = Température de l'air
td = dewpoint
ff = Vitesse du vent
dd = Direction du vent
ppp = reduced air pressure
vv = visibility

stations d'obs. à proximité